Regional Weather Roundup
Issued by NWS

Home | Current Version | Previous Version | Text Only | Print | Product List | Glossary On
Versions: 1 2 3 4 5 6 7 8 9 10 11 12 13 14 15 16 17 18 19 20 21 22 23 24 25 26 27
000
ASUS46 KPQR 270910
RWROR

OREGON REGIONAL WEATHER ROUNDUP
NATIONAL WEATHER SERVICE PORTLAND OR
200 AM PDT THU APR 27 2017

NOTE: "FAIR" INDICATES FEW OR NO CLOUDS BELOW 12,000 FEET WITH
NO SIGNIFICANT WEATHER AND/OR OBSTRUCTIONS TO VISIBILITY.

ORZ001>013-271000-
NORTHWEST OREGON


CITY           SKY/WX    TMP DP  RH WIND       PRES   REMARKS
ASTORIA        MOCLDY    45  39  79 SW6       30.10R
NEWPORT        MOCLDY    46  41  81 W9        30.19S
PORTLAND       PTCLDY    43  39  86 W6        30.12S
VANCOUVER WA   MOCLDY    45  40  82 CALM      30.12R
SCAPPOOSE      CLEAR     38  37  97 CALM      30.11S
HILLSBORO      CLEAR     38  38 100 N3        30.12R
AURORA         MOCLDY    43  39  86 S6        30.14S
MCMINNVILLE    CLOUDY    44  39  82 SW6       30.14S
SALEM          CLOUDY    43  40  89 SW6       30.14S
CORVALLIS      MOCLDY    43  39  87 CALM      30.16S
EUGENE         LGT RAIN  45  43  93 SW8       30.17S
$$

ORZ021-028-271000-
SOUTHWEST OREGON


CITY           SKY/WX    TMP DP  RH WIND       PRES   REMARKS
NORTH BEND     MOCLDY    46  45  93 SE7       30.21S
BROOKINGS      PTCLDY    42  41  96 CALM      30.19F
ROSEBURG       MOCLDY    44  42  93 CALM      30.18F
SEXTON SUMMIT  FOG       33  33 100 N3        30.11S VSB 1/4
MEDFORD        MOCLDY    45  37  73 NW5       30.15S
$$

ORZ014>016-041-271000-
COLUMBIA GORGE


CITY           SKY/WX    TMP DP  RH WIND       PRES   REMARKS
TROUTDALE      CLEAR     44  39  82 VRB3      30.11S
HOOD RIVER     CLOUDY    45  34  65 SW7       30.03S
THE DALLES     PTCLDY    48  35  60 W17G29    30.00R
$$

ORZ029>031-041-044-049-050-061>064-502-503-505>511-271000-
EASTERN OREGON


CITY           SKY/WX    TMP DP  RH WIND       PRES   REMARKS
REDMOND        PTCLDY    38  23  55 W21G31    29.98S WCI  28
BEND           MOCLDY    34  28  80 CALM      29.99R
PRINEVILLE     CLEAR     37  27  65 W16       29.97S WCI  28
KLAMATH FALLS  MOCLDY    35  29  78 W12       30.02F WCI  27
LAKEVIEW       PTCLDY    36  28  75 SW8       30.01F WCI  29
HERMISTON      CLEAR     45  36  70 W17G26    29.93R
PENDLETON      LGT RAIN  43  34  70 W29G36    29.91S
JOHN DAY       CLOUDY    36  32  86 S3        29.94R
MEACHAM        CLOUDY    35  30  82 VRB5      29.88S WCI  31
LA GRANDE      CLOUDY    39  34  81 NW9       29.89S WCI  33
BAKER CITY     PTCLDY    35  29  78 N7        29.88S WCI  29
BURNS          CLEAR     30  27  88 SW7       29.93S WCI  23
ROME             N/A     42  25  50 NW21G28   29.89S
ONTARIO        MOCLDY    42  35  76 NW9       29.91R
$$




USA.gov is the U.S. government's official web portal to all federal, state and local government web resources and services.